EW8041 Weather Reports


time (UTC)temp
C
wind
direction
speed
KPH
gust
KPH
rain 1hr
cm
rain 24hr
cm
rain mn
cm
humidity
%
barometer
mb
20260906140519 27 66 0.0 3.2 0.00 0.30 0.25 78 1012.9
20260906135554 26 66 0.0 1.6 0.00 0.30 0.25 78 1012.9
20260906134651 26 66 1.6 3.2 0.00 0.30 0.25 80 1013.0
20260906133526 25 65 1.6 3.2 0.00 0.30 0.25 83 1013.2
20260906132522 25 66 0.0 1.6 0.00 0.30 0.25 85 1013.4
20260906131517 24 66 1.6 3.2 0.00 0.30 0.25 87 1013.5
20260906130533 23 66 0.0 1.6 0.00 0.30 0.25 89 1013.5
20260906125549 23 66 0.0 1.6 0.00 0.30 0.25 91 1013.6
20260906124524 22 66 0.0 1.6 0.00 0.30 0.25 93 1013.5
20260906123520 22 0.0 0.0 0.00 0.30 0.25 93 1013.4
20260906122556 22 65 0.0 1.6 0.00 0.30 0.25 93 1013.5
20260906121533 22 0.0 0.0 0.00 0.30 0.25 94 1013.5
20260906120529 22 0.0 0.0 0.00 0.30 0.25 94 1013.5
20260906115525 22 0.0 0.0 0.00 0.30 0.25 93 1013.6
20260906114521 22 65 0.0 3.2 0.00 0.30 0.25 93 1013.7
20260906113517 22 65 0.0 1.6 0.00 0.30 0.25 92 1013.5
20260906112553 22 65 0.0 1.6 0.00 0.30 0.25 93 1013.3
20260906111529 22 65 1.6 3.2 0.00 0.30 0.25 92 1013.2
20260906110524 22 65 0.0 1.6 0.00 0.30 0.25 93 1013.1
20260906105521 22 65 0.0 1.6 0.00 0.30 0.25 91 1013.1
20260906104517 22 65 0.0 1.6 0.00 0.30 0.25 91 1012.8
20260906103533 22 67 1.6 3.2 0.00 0.30 0.25 91 1012.5
20260906102548 22 67 0.0 1.6 0.00 0.30 0.25 91 1012.6
20260906101525 22 0.0 0.0 0.00 0.30 0.25 92 1012.6
20260906100520 22 0.0 0.0 0.00 0.30 0.25 91 1012.3
20260906095517 22 0.0 0.0 0.00 0.30 0.25 91 1012.3
20260906094532 22 67 0.0 3.2 0.00 0.30 0.25 92 1012.2
20260906093528 22 67 1.6 1.6 0.00 0.30 0.25 89 1012.1
20260906092524 22 67 0.0 1.6 0.00 0.30 0.25 89 1012.3
20260906091520 22 67 1.6 1.6 0.00 0.30 0.25 89 1012.3
20260906090516 22 43 1.6 4.8 0.00 0.30 0.25 87 1012.2
20260906085533 22 310 1.6 3.2 0.00 0.30 0.25 85 1012.6
20260906084529 22 47 1.6 6.4 0.00 0.30 0.25 85 1012.1
20260906083525 22 64 3.2 11.3 0.00 0.28 0.25 85 1011.7
20260906082540 22 129 1.6 4.8 0.03 0.28 0.25 87 1012.0
20260906081537 22 110 1.6 11.3 0.13 0.28 0.25 89 1012.2
20260906080533 22 117 0.0 3.2 0.13 0.28 0.25 89 1012.5
20260906075528 22 77 8.0 16.1 0.25 0.28 0.25 93 1012.9
20260906074524 22 57 1.6 6.4 0.25 0.28 0.25 93 1013.2
20260906073520 23 14 3.2 20.9 0.25 0.28 0.25 93 1013.4
20260906072517 23 27 3.2 14.5 0.23 0.28 0.23 91 1013.5
20260906071533 24 64 4.8 12.9 0.13 0.18 0.13 89 1013.5
20260906070529 25 7 1.6 12.9 0.13 0.15 0.13 83 1013.3
20260906065525 25 54 1.6 3.2 0.00 0.05 0.00 79 1013.0
20260906064521 26 77 1.6 3.2 0.00 0.05 0.00 78 1013.1
20260906063516 26 57 1.6 4.8 0.00 0.05 0.00 77 1012.9
20260906062532 26 54 0.0 6.4 0.00 0.05 0.00 74 1012.9
20260906061528 27 158 3.2 12.9 0.00 0.05 0.00 69 1012.8
20260906060524 27 258 3.2 11.3 0.00 0.05 0.00 70 1012.1
20260906055520 27 116 3.2 12.9 0.00 0.05 0.00 74 1012.3
20260906054516 27 51 3.2 11.3 0.00 0.05 0.00 79 1012.7
20260906053532 26 101 0.0 1.6 0.00 0.05 0.00 82 1012.7
20260906052528 26 50 3.2 9.7 0.00 0.05 0.00 83 1012.7
20260906051544 26 0.0 0.0 0.00 0.05 0.00 91 1012.7
20260906050540 26 0.0 0.0 0.00 0.05 0.00 88 1012.2
20260906045535 26 0.0 0.0 0.00 0.05 0.05 88 1012.0
20260906044531 26 0.0 0.0 0.00 0.05 0.05 88 1012.4
20260906043527 26 0.0 0.0 0.00 0.05 0.05 88 1012.4
20260906042523 26 5 0.0 1.6 0.00 0.05 0.05 88 1012.5
20260906041518 26 0 0.0 1.6 0.00 0.05 0.05 88 1012.6
20260906040534 26 359 0.0 1.6 0.00 0.05 0.05 88 1012.5
20260906035530 26 0.0 0.0 0.00 0.05 0.05 87 1012.8
20260906034526 26 0 0.0 1.6 0.00 0.05 0.05 87 1012.6
20260906033522 26 4 0.0 1.6 0.00 0.05 0.05 86 1012.6
20260906032538 26 5 0.0 1.6 0.00 0.05 0.05 86 1012.7
20260906031553 26 1 0.0 1.6 0.00 0.05 0.05 85 1012.5
20260906030529 26 0.0 0.0 0.00 0.05 0.05 86 1012.4
20260906025525 26 1 0.0 1.6 0.00 0.05 0.05 86 1012.4
20260906024520 26 19 1.6 4.8 0.00 0.05 0.05 86 1012.4
20260906023516 26 25 0.0 1.6 0.00 0.05 0.05 85 1012.2
20260906022531 26 32 1.6 4.8 0.00 0.05 0.05 86 1012.1
20260906021527 26 56 0.0 1.6 0.00 0.05 0.05 84 1012.0
20260906020523 26 56 0.0 1.6 0.00 0.05 0.05 83 1011.8
20260906015519 26 0.0 0.0 0.00 0.05 0.05 83 1011.7
20260906014554 26 0.0 0.0 0.00 0.05 0.05 82 1011.6
20260906013530 26 0.0 0.0 0.00 0.05 0.05 82 1011.4
20260906012525 26 0.0 0.0 0.00 0.05 0.05 82 1011.3
20260906011520 26 56 0.0 1.6 0.00 0.05 0.05 81 1011.3
20260906010536 26 65 0.0 1.6 0.00 0.05 0.05 81 1011.2
20260906005532 26 0.0 0.0 0.00 0.05 0.05 81 1011.2
20260906004528 26 0.0 0.0 0.05 0.05 0.05 80 1011.2
20260906003544 26 77 1.6 1.6 0.05 0.05 0.05 79 1011.1
20260906002540 26 76 0.0 1.6 0.05 0.05 0.05 79 1011.1
20260906001516 27 77 1.6 3.2 0.05 0.05 0.05 78 1011.4
20260906000532 27 70 3.2 6.4 0.05 0.05 0.05 75 1012.0
20260905235528 29 261 3.2 11.3 0.05 0.05 0.05 72 1012.3
20260905234524 32 277 6.4 22.5 0.00 0.00 0.00 65 1011.7
20260905233600 32 53 1.6 3.2 0.00 0.00 0.00 57 1011.3
20260905232535 33 77 3.2 11.3 0.00 0.00 0.00 55 1010.9
20260905231531 34 75 1.6 12.9 0.00 0.00 0.00 54 1010.8
20260905230527 35 297 1.6 6.4 0.00 0.00 0.00 53 1010.8
20260905225523 35 297 1.6 6.4 0.00 0.00 0.00 52 1010.5
20260905224519 36 299 0.0 1.6 0.00 0.00 0.00 50 1010.5
20260905223554 36 299 0.0 3.2 0.00 0.00 0.00 50 1010.7
20260905222530 36 299 1.6 4.8 0.00 0.00 0.00 49 1010.5
20260905221526 36 299 0.0 1.6 0.00 0.00 0.00 48 1010.6
20260905220522 36 299 0.0 1.6 0.00 0.00 0.00 48 1010.6
20260905215517 37 299 0.0 4.8 0.00 0.00 0.00 48 1010.7
20260905214534 37 299 1.6 4.8 0.00 0.00 0.00 48 1010.7
20260905213549 37 89 3.2 11.3 0.00 0.00 0.00 48 1010.7
20260905212525 37 336 1.6 3.2 0.00 0.00 0.00 49 1010.8
20260905211521 37 335 1.6 4.8 0.00 0.00 0.00 48 1010.7
20260905210516 37 336 1.6 4.8 0.00 0.00 0.00 48 1010.8
20260905205533 37 33 1.6 6.4 0.00 0.00 0.00 48 1010.7
20260905204548 37 281 3.2 11.3 0.00 0.00 0.00 48 1010.9
20260905203524 37 312 1.6 9.7 0.00 0.00 0.00 47 1011.1
20260905202520 38 272 3.2 4.8 0.00 0.00 0.00 47 1011.1
20260905201536 38 272 0.0 3.2 0.00 0.05 0.00 48 1011.4
20260905200532 37 272 3.2 11.3 0.00 0.25 0.00 48 1011.5
20260905195547 37 272 1.6 4.8 0.00 0.28 0.00 50 1011.8
20260905194522 37 282 1.6 4.8 0.00 0.28 0.00 48 1011.9
20260905193558 37 282 4.8 14.5 0.00 0.28 0.00 50 1012.0
20260905192554 37 291 1.6 9.7 0.00 0.28 0.00 50 1012.0
20260905191530 37 291 1.6 4.8 0.00 0.28 0.00 49 1012.2
20260905190546 37 291 3.2 9.7 0.00 0.28 0.00 50 1012.5
20260905185522 36 46 0.0 1.6 0.00 0.28 0.00 50 1012.5
20260905184518 36 312 3.2 11.3 0.00 0.28 0.00 53 1012.6
20260905183534 36 287 1.6 4.8 0.00 0.28 0.00 54 1012.9
20260905182530 36 293 3.2 9.7 0.00 0.28 0.00 55 1013.0
20260905181546 36 328 1.6 3.2 0.00 0.28 0.00 53 1013.1
20260905180524 36 140 1.6 4.8 0.00 0.28 0.00 55 1013.3
20260905175517 36 141 1.6 3.2 0.00 0.28 0.00 55 1013.3
20260905174613 35 135 1.6 4.8 0.00 0.28 0.00 56 1013.4
20260905173529 35 286 3.2 6.4 0.00 0.28 0.00 55 1013.5
20260905172525 35 287 1.6 9.7 0.00 0.28 0.00 58 1013.6
20260905171521 35 293 1.6 4.8 0.00 0.28 0.00 60 1013.8
20260905170517 35 250 1.6 6.4 0.00 0.28 0.00 61 1013.8
20260905165554 34 221 1.6 9.7 0.00 0.28 0.00 60 1013.9
20260905164530 34 222 1.6 4.8 0.00 0.28 0.00 63 1014.1
20260905163546 34 282 1.6 9.7 0.00 0.28 0.00 62 1014.2
20260905162521 33 276 3.2 4.8 0.00 0.28 0.00 64 1014.4
20260905161518 33 276 1.6 3.2 0.00 0.28 0.00 64 1014.5
20260905160534 33 276 1.6 1.6 0.00 0.28 0.00 65 1014.5
20260905155530 32 276 1.6 4.8 0.00 0.28 0.00 66 1014.7
20260905154546 32 276 1.6 3.2 0.00 0.28 0.00 68 1014.7
20260905153541 32 276 0.0 3.2 0.00 0.28 0.00 69 1014.7
20260905152518 32 276 1.6 4.8 0.00 0.28 0.00 71 1014.8
20260905151534 31 276 1.6 4.8 0.00 0.28 0.00 72 1014.6
20260905150529 31 276 1.6 4.8 0.00 0.28 0.00 75 1014.7
20260905145525 30 276 1.6 3.2 0.00 0.28 0.00 77 1014.7
20260905144521 30 276 0.0 1.6 0.00 0.28 0.00 77 1014.9
20260905143517 29 276 0.0 1.6 0.00 0.28 0.00 78 1014.7
20260905142534 29 276 1.6 3.2 0.00 0.28 0.00 81 1015.0
20260905141529 28 276 1.6 1.6 0.00 0.28 0.00 82 1015.1